Home   Weather   Cloppenburg   Past weeks

Flag for Germany Past Weather in Cloppenburg, Lower Saxony, Germany — Yesterday and Last 2 Weeks

Now
68 °F

Mild.


Feels Like: 68 °F
Forecast: 53 / 67 °F
Wind: 12 mph from West

Location: Meppen-Mil

Current Time: Sep 25, 2016 at 9:08:57 PM

Latest Report: Sep 25, 2016 at 8:20 PM


Visibility: 4 mi

Pressure: 30.07 "Hg

Humidity: 69%

Dew Point: 57 °F

Location of CloppenburgLocation

Past Weather in Cloppenburg — Graph

°F

Cloppenburg Temperature Yesterday

Maximum temperature yesterday: 72 °F (at 2:20 PM)
Minimum temperature yesterday: 41 °F (at 4:20 AM)
Average temperature yesterday: 56 °F

High & Low Weather Summary for the Past Weeks

 TemperatureHumidityPressure
High90 °F (Sep 13, 2:20 PM)100% (Sep 11, 12:20 AM)30.27 "Hg (Sep 11, 12:20 AM)
Low41 °F (Sep 24, 4:20 AM)33% (Sep 13, 4:20 PM)29.83 "Hg (Sep 15, 5:20 PM)
Average63 °F73%30.05 "Hg
* Reported Sep 10 7:20 PM — Sep 25 7:20 PM, Cloppenburg, Weather by CustomWeather, © 2016

Note: Actual official high and low records may vary slightly from our data, if they occured in-between our weather recording intervals... More about our weather records

Advertising

Cloppenburg Weather History for the Previous 24 Hours

Scroll right to see more
 ConditionsComfort  
Time TempWeatherWind HumidityBarometerVisibility
7:20 PM
Sun, Sep 25
68 °FMild.2 mph56%30.01 "HgN/A
6:20 PM75 °FMild.6 mph39%29.98 "HgN/A
5:20 PM77 °FPleasantly warm.7 mph36%29.98 "HgN/A
4:20 PM77 °FPleasantly warm.6 mph39%29.98 "Hg6 mi
3:20 PM77 °FPleasantly warm.6 mph39%29.98 "Hg5 mi
2:20 PM75 °FMild.5 mph41%29.98 "Hg5 mi
1:20 PM73 °FMild.5 mph47%29.98 "Hg6 mi
12:20 PM70 °FMild.5 mph50%30.01 "Hg6 mi
11:20 AM66 °FMild.6 mph56%30.04 "Hg6 mi
10:20 AM63 °FMild.3 mph64%30.04 "Hg5 mi
9:20 AM59 °FCool.2 mph68%30.04 "Hg6 mi
8:20 AM50 °FCool.1 mph88%30.04 "Hg4 mi
7:20 AM46 °FCool.1 mph93%30.04 "Hg2 mi
6:20 AM46 °FCool.1 mph93%30.07 "Hg1 mi
5:20 AM46 °FCool.1 mph93%30.07 "Hg1 mi
4:20 AM46 °FCool.1 mph93%30.07 "Hg3 mi
3:20 AM46 °FCool.1 mph93%30.09 "Hg2 mi
2:20 AM48 °FCool.1 mph94%30.09 "Hg4 mi
1:20 AM50 °FCool.1 mph88%30.12 "Hg4 mi
12:20 AM50 °FCool.1 mph94%30.12 "Hg1 mi
11:20 PM
Sat, Sep 24
50 °FCool.1 mph94%30.12 "Hg3 mi
10:20 PM52 °FCool.No wind94%30.12 "Hg4 mi
9:20 PM54 °FCool.No wind88%30.15 "Hg5 mi
Weather by CustomWeather, © 2016

See weather overviewHow to use our weather pages